User: anonymous   Login
Location: Unspecified
(0.0000°N, 0.0000°E)
Time: 01:00:31
(UTC+00:00)
Language:

USA 169 - Orbit

View from above orbital plane
View from above orbital plane
View from above satellite
View from above satellite

Ground track
Ground track

The orbit data is extracted from the following two-line orbital elements,

1 27711U 03012A   23088.74563458 -.00000267  00000-0  00000+0 0  9992
2 27711  10.5536  38.3975 0100573 350.7889 218.2954  1.00273551 19859
Epoch (UTC): 29 March 2023 17:53:42
Eccentricity: 0.0100573
inclination: 10.5536°
perigee height: 35361 km
apogee height: 36210 km
right ascension of ascending node: 38.3975°
argument of perigee: 350.7889°
revolutions per day: 1.00273551
mean anomaly at epoch: 218.2954°
orbit number at epoch: 1985

The dashed part of the orbit path shows where the satellite is in the earth's shadow,  

DLR